Location: Carrer del Canonge
(41.4901°N, 2.2931°E)
Time: 17:53:23
(UTC+00:00)

NOSS 3-2 (C) - Visible Passes

Search period start: 16 January 2021 00:00
Search period end: 26 January 2021 00:00
Orbit: 789 x 1424 km, 63.4° (Epoch: 09 January)

Date Brightness Start Highest point End Pass type
(mag) Time Alt. Az. Time Alt. Az. Time Alt. Az.
16 Jan 5.2 17:12:56 10° NW 17:20:27 53° WSW 17:28:45 10° S visible
17 Jan 7.0 18:21:10 10° WNW 18:25:55 17° WSW 18:30:53 10° SW visible
18 Jan 5.9 06:23:06 10° SSE 06:27:33 25° ESE 06:32:23 10° ENE visible
18 Jan 6.5 17:35:07 10° WNW 17:41:31 27° WSW 17:48:22 10° SSW visible
19 Jan 6.4 05:40:31 10° SE 05:43:18 14° ESE 05:46:13 10° ENE visible
20 Jan 7.4 17:59:33 10° W 18:02:15 12° WSW 18:05:01 10° WSW visible
21 Jan 5.0 05:58:58 10° S 06:03:55 35° ESE 06:09:25 10° NE visible
21 Jan 6.9 17:12:24 10° WNW 17:17:56 21° WSW 17:23:47 10° SSW visible
22 Jan 5.9 05:15:38 10° SSE 05:19:36 20° ESE 05:23:51 10° ENE visible
23 Jan 6.4 04:34:13 10° ESE 04:35:24 11° ESE 04:36:36 10° E visible
23 Jan 3.4 06:19:23 10° SSW 06:24:55 83° ESE 06:31:16 10° NE visible
24 Jan 4.2 05:35:04 10° S 05:40:21 49° ESE 05:46:18 10° NE visible
25 Jan 5.2 04:51:17 10° S 04:55:56 29° ESE 05:01:02 10° NE visible
